#timestamp,LO_Frequency,Hit,StdDev 
1581242415.3,286046988.9,N
1581242435.1,286046991.0,N
1581242455.8,286046987.4,N
1581242475.7,286046986.1,N
1581242495.5,286046982.7,N
1581242515.4,286046980.9,N
1581242535.2,286046985.0,N
1581242555.0,286046983.4,N
1581242555.9,286046983.4,N
1581242575.8,286046979.3,N
1581242595.6,286046979.5,N
1581242615.4,286046979.9,N
1581242635.3,286046979.7,N
1581242655.1,286046976.0,N
1581242675.9,286046973.0,N
1581242695.7,286046970.9,N
1581242715.5,286046969.5,N
1581242735.4,286046970.2,N
1581242755.2,286046970.4,N
1581242775.0,286046967.8,N
1581242776.0,286046967.8,N
1581242795.8,286046970.3,N
1581242815.6,286046967.1,N
1581242835.5,286046964.2,N
1581242855.3,286046961.9,N
1581242875.1,286046963.6,N
1581242895.9,286046960.2,N
1581242915.7,286046961.0,N
1581242935.6,286046959.2,N
1581242955.4,286046958.0,Y
1581242975.2,286046979.9,P
1581242995.1,286046981.7,P
1581242996.0,286046981.7,P
1581243015.8,286046979.4,Y
1581243035.7,286047002.3,P
1581243055.5,286046999.9,N
1581243075.3,286046997.7,N
1581243095.2,286046995.9,N
1581243115.0,286046992.6,N
1581243115.9,286046992.6,N
1581243135.8,286046989.8,N
1581243155.6,286046986.2,N
1581243175.4,286046986.8,N
1581243195.3,286046982.3,N
1581243215.1,286046982.5,N
1581243235.8,286046983.7,N
1581243255.7,286046986.7,N
1581243275.5,286046982.5,N
1581243295.4,286046982.2,N
1581243315.2,286046986.3,N
1581243335.0,286046982.5,N
1581243335.9,286046982.5,N
1581243355.8,286046981.9,N
1581243375.6,286046979.0,Y
1581243395.5,286046994.8,P
1581243415.3,286046991.9,N
1581243435.1,286046992.3,N
1581243455.9,286046991.0,Y
1581243475.7,286046999.0,P
1581243495.5,286046996.1,N
1581243515.4,286046992.2,N
1581243535.2,286046994.0,N
1581243555.1,286046992.3,N
1581243556.0,286046992.3,N
1581243575.8,286046994.5,N
1581243595.6,286046993.1,N
1581243615.5,286046989.2,Y
1581243635.3,286046998.4,P
1581243655.1,286046996.9,N
1581243675.9,286046995.6,N
1581243695.7,286046993.7,Y
1581243715.6,286046997.8,P
1581243735.4,286046997.3,P
1581243755.2,286046998.0,P
1581243775.1,286046994.5,Y
1581243776.0,286046994.5,P
1581243795.8,286046993.4,P
1581243815.7,286046994.4,P
1581243835.5,286046992.0,Y
1581243855.3,286046993.8,P
1581243875.2,286046992.4,P
1581243895.0,286046988.6,P
1581243895.9,286046988.6,Y
1581243915.8,286046994.2,P
1581243935.6,286046995.0,P
1581243955.4,286046995.6,P
1581243975.3,286046994.0,Y
1581243995.1,286047002.4,P
1581244015.8,286046999.4,N
1581244035.7,286046997.2,N
1581244055.5,286047001.0,N
1581244075.4,286046996.8,N
1581244095.2,286046995.2,N
1581244115.0,286046992.4,N
1581244115.9,286046992.4,N
1581244135.8,286046990.4,N
1581244155.6,286046990.7,N
1581244175.4,286046992.9,N
1581244195.3,286046991.1,N
1581244215.1,286046994.1,N
1581244235.9,286046996.1,N
1581244255.7,286046995.9,N
1581244275.5,286046989.5,Y
1581244295.4,286046994.0,P
1581244315.2,286046991.8,P
1581244335.1,286046992.7,P
1581244336.0,286046992.7,Y
1581244355.8,286046999.0,P
1581244375.6,286046999.6,N
1581244395.5,286046994.9,N
1581244415.3,286046993.3,N
1581244435.1,286046993.8,N
1581244455.9,286046996.2,N
1581244475.7,286046992.3,Y
1581244495.6,286046990.1,P
1581244515.4,286046990.9,P
1581244535.2,286046987.1,P
1581244555.1,286046985.8,Y
1581244556.0,286046985.8,P
1581244575.8,286046995.1,N
1581244595.7,286046993.9,N
1581244615.5,286046993.2,N
1581244635.3,286046989.2,Y
1581244655.2,286046994.4,P
1581244675.0,286046993.2,P
1581244675.9,286046993.2,P
1581244695.8,286046989.5,Y
1581244715.6,286046994.6,P
1581244735.4,286046997.1,P
1581244755.3,286046995.0,P
1581244775.1,286046999.6,N
1581244795.8,286046997.6,N
1581244815.7,286047001.0,N
1581244835.5,286047000.9,N
1581244855.4,286046998.8,N
1581244875.2,286046996.6,N
1581244895.0,286046992.4,Y
1581244895.9,286046992.4,P
1581244915.8,286046996.4,N
1581244935.6,286046996.4,N
1581244955.5,286046994.1,Y
1581244975.3,286047002.4,P
1581244995.1,286047007.6,N
1581245015.9,286047010.5,N
1581245035.7,286047008.8,N
1581245055.5,286047006.5,N
1581245075.4,286047004.5,N
1581245095.2,286047002.3,N
1581245115.1,286047001.4,N
1581245116.0,286047001.4,N
1581245135.8,286047005.2,N
1581245155.6,286047007.9,N
1581245175.5,286047008.5,N
1581245195.3,286047003.7,N
1581245215.2,286047002.0,N
1581245235.9,286046999.1,N
1581245255.7,286046999.5,N
1581245275.6,286046995.0,N
1581245295.4,286046995.6,N
1581245315.2,286047000.1,N
1581245335.1,286047004.4,N
1581245336.0,286047004.4,N
1581245355.8,286047001.0,N
1581245375.7,286047001.0,N
1581245395.5,286046998.7,N
1581245415.3,286046993.5,N
1581245435.2,286046991.7,N
1581245455.0,286046985.7,N
1581245455.9,286046985.7,N
1581245475.7,286046984.8,N
1581245495.6,286046979.7,Y
1581245515.4,286046982.5,P
1581245535.3,286046982.6,N
1581245555.1,286046979.1,N
1581245556.0,286046979.1,N
1581245575.8,286046977.3,N
1581245595.7,286046980.7,N
1581245615.5,286046982.9,N
1581245635.4,286046987.1,N
1581245655.2,286046988.1,N
1581245675.0,286046988.0,N
1581245675.9,286046988.0,N
1581245695.8,286046987.6,N
1581245715.6,286046982.1,Y
1581245735.4,286046994.5,P
1581245755.3,286046990.4,N
1581245775.1,286046988.2,N
1581245795.9,286046983.6,Y
1581245815.7,286046990.8,P
1581245835.5,286046985.3,P
1581245855.4,286046985.9,P
1581245875.2,286046989.7,Y
1581245895.1,286047002.5,P
1581245896.0,286047002.5,N
1581245915.8,286046998.5,N
1581245935.6,286047003.6,N
1581245955.5,286047007.7,N
1581245975.3,286047006.2,N
1581245995.1,286047005.3,N
